Location: Rounton
(54.4000°N, 1.3500°W)
Time: 01:27:03
(UTC+00:00)

Transit 4A - Pass Details

Date: 07 December 2021
Orbit: 864 x 981 km, 66.8° (Epoch: 19 January)

Event Time Altitude Azimuth Distance (km) Brightness Sun altitude
Rises 17:04:59 0° 154° (SSE) 3,465 10.9 -11.1°
Reaches altitude 10° 17:08:48 10° 129° (SE) 2,553 9.9 -11.6°
Maximum altitude 17:11:31 13° 101° (ESE) 2,330 9.5 -12.0°
Enters shadow 17:12:24 13° 92° (E) 2,364 9.5 -12.1°
